AirNav   Pilot Hours Calculator
 
 1595 users online  

7W5 Henry County Airport
Napoleon, Ohio, USA

GOING TO NAPOLEON?


FAA INFORMATION EFFECTIVE 25 FEBRUARY 2021

Location

FAA Identifier: 7W5
Lat/Long: 41-22-27.4000N 084-04-04.3000W
41-22.456667N 084-04.071667W
41.3742778,-84.0678611
(estimated)
Elevation: 683 ft. / 208.2 m (surveyed)
Variation: 05W (1985)
From city: 3 miles E of NAPOLEON, OH
Time zone: UTC -5 (UTC -4 during Daylight Saving Time)
Zip code: 43545

Airport Operations

Airport use: Open to the public
Activation date: 11/1971
Control tower: no
ARTCC: CLEVELAND CENTER
FSS: CLEVELAND FLIGHT SERVICE STATION
NOTAMs facility: CLE (NOTAM-D service available)
Attendance: MON-FRI 0800-1730, ALL SAT-SUN ON CALL
FOR SER CALL AMGR CELL.
Wind indicator: lighted
Segmented circle: no
Lights: ACTVT REIL RWY 10 & 28; PAPI RWY 10 & 28; MIRL RWY 10/28 - CTAF.
Beacon: white-green (lighted land airport)
Operates sunset to sunrise.

Airport Communications

CTAF/UNICOM: 123.0
TOLEDO APPROACH: 134.35
TOLEDO DEPARTURE: 134.35
WX AWOS-3P at USE (14 nm N): 127.375 (419-335-0775)
WX ASOS at DFI (16 nm W): 121.425 (419-658-2301)
WX ASOS at TOL (17 nm NE): PHONE 419-865-6924
WX AWOS-3 at 1G0 (20 nm E): 120.725 (419-354-1415)

Nearby radio navigation aids

VOR radial/distance  VOR name  Freq  Var
FBCr333/28.8FLAG CITY VORTAC108.2002W

 
NDB name  Hdg/Dist  Freq  Var  ID
TOPHR217/12.621905WTO - ---
ADRIAN185/29.727806WADG .- -.. --.

Airport Services

Fuel available: 100LL JET-A
Parking: hangars and tiedowns
Airframe service: MAJOR
Powerplant service: MAJOR
Bottled oxygen: LOW

Runway Information

Runway 10/28

Dimensions: 4001 x 65 ft. / 1220 x 20 m
Surface: asphalt, in poor condition
NMRS CRACKS.
Runway edge lights: medium intensity
RUNWAY 10  RUNWAY 28
Latitude: 41-22.517777N41-22.394432N
Longitude: 084-04.501945W084-03.642770W
Elevation: 680.7 ft.682.7 ft.
Traffic pattern: leftleft
Runway heading: 106 magnetic, 101 true286 magnetic, 281 true
Markings: nonprecision, in fair conditionnonprecision, in fair condition
Visual slope indicator: 2-light PAPI on left (3.00 degrees glide path)2-light PAPI on left (3.00 degrees glide path)
Runway end identifier lights: yesyes
Touchdown point: yes, no lightsyes, no lights
Obstructions: 5 ft. crops, 201 ft. from runway, 85 ft. right of centerline
+5 FT CROPS/CULTIVATED FLD, 200 FT FM RWY 10 EXTDG TO THR RWY 10, 85-125 FT R.
6 ft. crops, 201 ft. from runway, 125 ft. left of centerline
+6 FT CROPS/CULTIVATED FLD, 200 FT FM RWY 28 EXTDG TO THR RWY 28, 125 FT L.

Airport Ownership and Management from official FAA records

Ownership: Publicly-owned
Owner: HENRY CO ARPT AUTH
10646 COUNTY ROAD O
NAPOLEON, OH 43545-6217
Phone 419-599-6494
Manager: RANDY E AMES
10646 COUNTY ROAD O
NAPOLEON, OH 43545-6217
Phone 419-599-6494
CELL 419-583-0150.

Airport Operational Statistics

Aircraft based on the field: 18
Single engine airplanes: 17
Multi engine airplanes: 1
    
Aircraft operations: avg 106/week *
91% local general aviation
9% transient general aviation
<1% military
<1% air taxi
* for 12-month period ending 14 July 2020

Additional Remarks

FOR CD CTC TOLEDO APCH AT 419-865-1495.

Instrument Procedures

NOTE: All procedures below are presented as PDF files. If you need a reader for these files, you should download the free Adobe Reader.

NOT FOR NAVIGATION. Please procure official charts for flight.
FAA instrument procedures published for use from 25 February 2021 at 0901Z to 25 March 2021 at 0900Z.

 
IAPs - Instrument Approach Procedures
RNAV (GPS) RWY 28   download (203KB)
NOTE: Special Take-Off Minimums/Departure Procedures apply   download (164KB)

Other nearby airports with instrument procedures:

KUSE - Fulton County Airport (14 nm N)
KDFI - Defiance Memorial Airport (16 nm W)
KTOL - Eugene F Kranz Toledo Express Airport (17 nm NE)
1G0 - Wood County Airport (20 nm E)
0G6 - Williams County Airport (21 nm W)
 
Loc | Ops | Rwys | IFR | FBO | Links
Com | Nav | Svcs | Stats | Notes
Area around 7W5 (Henry County Airport)
 
Road maps at: MapQuest Bing Google
 
Aerial photo
WARNING: Photo may not be current or correct
Aerial photo of 7W5 (Henry County Airport)
Photo by Roger Kellogg
Photo taken 29-Sep-2007

Do you have a better or more recent aerial photo of Henry County Airport that you would like to share? If so, please send us your photo.

 
Sectional chart

 
Airport diagram
CAUTION: Diagram may not be current
Diagram of 7W5 (Henry County Airport)
 
Airport distance calculator
Flying to Henry County Airport? Find the distance to fly.

From to 7W5

Sunrise and sunset
Times for 03-Mar-2021
 Local
(UTC-5)
 Zulu
(UTC)
Morning civil twilight06:4111:41
Sunrise07:0912:09
Sunset18:2823:28
Evening civil twilight18:5623:56

Current date and time
Zulu (UTC)  03-Mar-2021 17:25:40
Local (UTC-5)  03-Mar-2021 12:25:40
 
METAR
KUSE 
14nm N 
031655Z AUTO 27012KT 10SM CLR 09/01 A2991 RMK AO2
KDFI 
17nm W 
031653Z AUTO 25009KT 10SM CLR 09/M01 A2994 RMK AO2 SLP142 T00941006
KTOL 
17nm NE 
031652Z 27011KT 10SM CLR 10/M01 A2992 RMK AO2 SLP135 T01001011
KOWX 
21nm S 
031655Z AUTO 28014KT 10SM CLR 10/M01 A2996 RMK AO1
KFDY 
28nm SE 
031653Z AUTO 25013KT 10SM CLR 11/00 A2992 RMK AO2 SLP134 T01060000
KDUH 
29nm NE 
031655Z AUTO 27009G16KT 10SM CLR 09/00 A2991 RMK AO2 T00870003
KTDZ 
29nm NE 
031653Z AUTO 23011G20KT 10SM CLR 09/M01 A2992 RMK AO2 SLP134 T00941006 $
TAF
KTOL 
17nm NE 
030544Z 0306/0406 23010KT P6SM SKC FM030900 23012KT P6SM SKC WS020/27040KT FM031300 24010KT P6SM SKC FM040100 32010KT P6SM SCT025 BKN045
NOTAMs
Click for the latest NOTAMs
NOTAMs are issued by the DoD/FAA and will open in a separate window not controlled by AirNav.

 

 
 

FBO, Fuel Providers, and Aircraft Ground Support

  
 Business Name 
 
 Contact 
 
 Services / Description 
 
Fuel Prices
 
Comments
  
Ames Aviation 419-599-6494
no information available

If you are affiliated with Ames Aviation and would like to show here your services, contact info, web link, logo, and more, click here
100LL Jet A
FS --- $4.08 
SS $4.60 --- 
 Updated 23-Feb-2021
 
   write
FS=Full service
SS=Self service
Update Fuel Prices
 

Would you like to see your business listed on this page?

 If your business provides an interesting product or service to pilots, flight crews, aircraft, or users of the Henry County Airport, you should consider listing it here.  To start the listing process, click on the button below
 
Add a business
 

Other Pages about Henry County Airport

Update a link
 
Copyright © AirNav, LLC. All rights reserved. Privacy Policy  Contact